When you browse on this site, cookies collect data to enhance your experience and personalize the content and advertising you see.
Visit our Privacy Policy to learn more. By continuing to use the site, you agree to this use of cookies and data.

Hourly Weather Mohyliv-Podil'sky

Today, 11 August, Tuesday

Time Temperature Precipitation Wind Pressure Humidity
00:00 +19°C° 0 mm 2 mps 742 mmHg 74%
01:00 +19°C° 0 mm 2 mps 742 mmHg 77%
02:00 +18°C° 0 mm 2 mps 743 mmHg 79%
03:00 +18°C° 0 mm 2 mps 743 mmHg 81%
04:00 +17°C° 0 mm 2 mps 743 mmHg 84%
05:00 +17°C° 0 mm 2 mps 742 mmHg 86%
06:00 +19°C° 0 mm 2 mps 743 mmHg 79%
07:00 +21°C° 0 mm 2 mps 743 mmHg 71%
08:00 +24°C° 0 mm 3 mps 743 mmHg 63%
09:00 +25°C° 0 mm 3 mps 743 mmHg 56%
10:00 +27°C° 0 mm 3 mps 743 mmHg 50%
11:00 +28°C° 0 mm 3 mps 743 mmHg 43%
12:00 +28°C° 0 mm 3 mps 743 mmHg 43%
13:00 +28°C° 0 mm 3 mps 743 mmHg 43%
14:00 +28°C° 0 mm 3 mps 743 mmHg 43%
15:00 +28°C° 0 mm 3 mps 743 mmHg 44%
16:00 +28°C° 0 mm 3 mps 743 mmHg 45%
17:00 +28°C° 0 mm 3 mps 742 mmHg 47%
18:00 +26°C° 0 mm 3 mps 742 mmHg 53%
19:00 +25°C° 0 mm 2 mps 742 mmHg 60%
20:00 +23°C° 0 mm 2 mps 742 mmHg 67%
21:00 +21°C° 0 mm 2 mps 742 mmHg 70%
22:00 +21°C° 0 mm 2 mps 742 mmHg 74%
23:00 +21°C° 0 mm 1 mps 742 mmHg 77%

Tomorrow, 12 August, Wednesday

Time Temperature Precipitation Wind Pressure Humidity
00:00 +20°C° 0 mm 2 mps 742 mmHg 80%
01:00 +19°C° 0 mm 2 mps 742 mmHg 82%
02:00 +19°C° 0 mm 2 mps 742 mmHg 84%
03:00 +18°C° 0.2 mm 2 mps 742 mmHg 87%
04:00 +17°C° 0.2 mm 2 mps 742 mmHg 90%
05:00 +17°C° 0.2 mm 2 mps 742 mmHg 93%
06:00 +18°C° 0 mm 3 mps 743 mmHg 88%
07:00 +20°C° 0 mm 3 mps 743 mmHg 82%
08:00 +21°C° 0 mm 4 mps 743 mmHg 76%
09:00 +22°C° 0 mm 4 mps 743 mmHg 69%
10:00 +23°C° 0 mm 5 mps 743 mmHg 62%
11:00 +26°C° 0 mm 5 mps 744 mmHg 55%
12:00 +26°C° 0 mm 5 mps 744 mmHg 52%
13:00 +26°C° 0 mm 5 mps 744 mmHg 49%
14:00 +26°C° 0 mm 5 mps 744 mmHg 46%
15:00 +26°C° 0 mm 5 mps 744 mmHg 47%
16:00 +25°C° 0 mm 5 mps 744 mmHg 47%
17:00 +25°C° 0 mm 5 mps 744 mmHg 48%
18:00 +22°C° 0 mm 5 mps 744 mmHg 54%
19:00 +20°C° 0 mm 4 mps 744 mmHg 61%
20:00 +18°C° 0 mm 3 mps 745 mmHg 67%
21:00 +17°C° 0 mm 3 mps 745 mmHg 70%
22:00 +16°C° 0 mm 2 mps 745 mmHg 73%
23:00 +15°C° 0 mm 2 mps 745 mmHg 76%

Day after tomorrow, 13 August, Thursday

Time Temperature Precipitation Wind Pressure Humidity
00:00 +15°C° 0 mm 2 mps 745 mmHg 78%
01:00 +14°C° 0 mm 2 mps 745 mmHg 80%
02:00 +14°C° 0 mm 2 mps 745 mmHg 82%
03:00 +13°C° 0 mm 2 mps 745 mmHg 83%
04:00 +13°C° 0 mm 2 mps 745 mmHg 85%
05:00 +12°C° 0 mm 2 mps 745 mmHg 86%
06:00 +14°C° 0 mm 2 mps 745 mmHg 78%
07:00 +16°C° 0 mm 2 mps 745 mmHg 70%
08:00 +18°C° 0 mm 2 mps 745 mmHg 62%
09:00 +20°C° 0 mm 2 mps 745 mmHg 56%
10:00 +21°C° 0 mm 2 mps 745 mmHg 50%
11:00 +22°C° 0 mm 3 mps 745 mmHg 44%
12:00 +24°C° 0 mm 3 mps 745 mmHg 41%
13:00 +25°C° 0 mm 3 mps 744 mmHg 38%
14:00 +26°C° 0 mm 3 mps 744 mmHg 36%
15:00 +26°C° 0 mm 3 mps 744 mmHg 36%
16:00 +25°C° 0 mm 3 mps 744 mmHg 37%
17:00 +25°C° 0 mm 3 mps 743 mmHg 37%
18:00 +22°C° 0 mm 3 mps 743 mmHg 44%
19:00 +20°C° 0 mm 3 mps 743 mmHg 50%
20:00 +18°C° 0 mm 2 mps 743 mmHg 57%
21:00 +17°C° 0 mm 2 mps 743 mmHg 61%
22:00 +16°C° 0 mm 2 mps 743 mmHg 65%
23:00 +15°C° 0 mm 2 mps 744 mmHg 69%

14 August, Friday

Time Temperature Precipitation Wind Pressure Humidity
00:00 +15°C° 0 mm 2 mps 744 mmHg 71%
01:00 +14°C° 0 mm 1 mps 743 mmHg 72%
02:00 +14°C° 0 mm 1 mps 743 mmHg 74%
03:00 +14°C° 0 mm 1 mps 743 mmHg 76%
04:00 +13°C° 0 mm 1 mps 743 mmHg 77%
05:00 +13°C° 0 mm 1 mps 743 mmHg 79%
06:00 +15°C° 0 mm 1 mps 743 mmHg 72%
07:00 +17°C° 0 mm 2 mps 743 mmHg 65%
08:00 +19°C° 0 mm 2 mps 743 mmHg 58%
09:00 +20°C° 0 mm 2 mps 743 mmHg 54%
10:00 +23°C° 0 mm 2 mps 743 mmHg 49%
11:00 +25°C° 0 mm 2 mps 743 mmHg 44%
12:00 +25°C° 0 mm 2 mps 743 mmHg 41%
13:00 +26°C° 0 mm 2 mps 743 mmHg 39%
14:00 +27°C° 0 mm 1 mps 743 mmHg 36%
15:00 +27°C° 0 mm 2 mps 743 mmHg 36%
16:00 +27°C° 0 mm 2 mps 742 mmHg 36%
17:00 +27°C° 0 mm 2 mps 742 mmHg 36%
18:00 +25°C° 0 mm 3 mps 742 mmHg 42%
19:00 +21°C° 0 mm 3 mps 742 mmHg 48%
20:00 +19°C° 0 mm 3 mps 742 mmHg 54%
21:00 +18°C° 0 mm 3 mps 743 mmHg 56%
22:00 +17°C° 0 mm 4 mps 743 mmHg 58%
23:00 +17°C° 0 mm 4 mps 743 mmHg 59%

15 August, Saturday

Time Temperature Precipitation Wind Pressure Humidity
00:00 +15°C° 0 mm 4 mps 743 mmHg 62%
01:00 +14°C° 0 mm 3 mps 743 mmHg 65%
02:00 +14°C° 0 mm 3 mps 743 mmHg 68%
03:00 +14°C° 0 mm 3 mps 743 mmHg 69%
04:00 +13°C° 0 mm 3 mps 743 mmHg 70%
05:00 +13°C° 0 mm 3 mps 743 mmHg 71%
06:00 +15°C° 0 mm 4 mps 743 mmHg 65%
07:00 +17°C° 0 mm 5 mps 743 mmHg 59%
08:00 +20°C° 0 mm 5 mps 743 mmHg 54%
09:00 +21°C° 0 mm 5 mps 743 mmHg 51%
10:00 +21°C° 0 mm 5 mps 743 mmHg 48%
11:00 +22°C° 0 mm 5 mps 743 mmHg 46%
12:00 +23°C° 0 mm 5 mps 743 mmHg 45%
13:00 +23°C° 0 mm 4 mps 743 mmHg 43%
14:00 +25°C° 0 mm 4 mps 743 mmHg 42%
15:00 +25°C° 0 mm 3 mps 743 mmHg 43%
16:00 +24°C° 0 mm 3 mps 743 mmHg 44%
17:00 +24°C° 0 mm 2 mps 743 mmHg 45%
18:00 +23°C° 0 mm 2 mps 743 mmHg 48%
19:00 +22°C° 0 mm 1 mps 743 mmHg 51%
20:00 +21°C° 0 mm 1 mps 743 mmHg 53%
21:00 +20°C° 0 mm 1 mps 743 mmHg 56%
22:00 +18°C° 0 mm 2 mps 743 mmHg 58%
23:00 +17°C° 0 mm 2 mps 744 mmHg 61%

16 August, Sunday

Time Temperature Precipitation Wind Pressure Humidity
00:00 +16°C° 0 mm 2 mps 744 mmHg 63%
01:00 +16°C° 0 mm 2 mps 744 mmHg 65%
02:00 +14°C° 0 mm 3 mps 744 mmHg 67%
03:00 +14°C° 0 mm 3 mps 744 mmHg 67%
04:00 +14°C° 0 mm 2 mps 744 mmHg 67%
05:00 +14°C° 0 mm 2 mps 744 mmHg 67%
06:00 +16°C° 0 mm 2 mps 744 mmHg 61%
07:00 +17°C° 0 mm 3 mps 744 mmHg 56%
08:00 +19°C° 0 mm 3 mps 745 mmHg 51%
09:00 +21°C° 0 mm 3 mps 745 mmHg 46%
10:00 +22°C° 0 mm 3 mps 745 mmHg 41%
11:00 +23°C° 0 mm 4 mps 745 mmHg 35%
12:00 +25°C° 0 mm 4 mps 745 mmHg 33%
13:00 +26°C° 0 mm 4 mps 745 mmHg 31%
14:00 +26°C° 0 mm 4 mps 745 mmHg 28%
15:00 +26°C° 0 mm 4 mps 745 mmHg 29%
16:00 +26°C° 0 mm 4 mps 744 mmHg 30%
17:00 +26°C° 0 mm 4 mps 744 mmHg 31%
18:00 +22°C° 0 mm 3 mps 744 mmHg 36%
19:00 +20°C° 0 mm 3 mps 745 mmHg 42%
20:00 +18°C° 0 mm 2 mps 745 mmHg 48%
21:00 +17°C° 0 mm 2 mps 745 mmHg 52%
22:00 +16°C° 0 mm 2 mps 745 mmHg 56%
23:00 +15°C° 0 mm 2 mps 745 mmHg 59%
Show more